Regional Weather Roundup
Issued by NWS

Home | Current Version | Previous Version | Graphics & Text | Print | Product List | Glossary On
Versions: 1 2 3 4 5 6 7 8 9 10 11 12 13 14 15 16 17 18 19 20 21 22 23 24 25 26 27 28 29 30 31 32 33 34 35 36 37 38 39 40 41 42 43 44 45 46 47 48 49 50
467
ASUS44 KJAN 200010
RWRMS

MISSISSIPPI HOURLY WEATHER ROUNDUP
NATIONAL WEATHER SERVICE JACKSON MS
700 PM CDT SUN OCT 19 2014

NOTE: "FAIR: INDICATES FEW OR NO CLOUDS BELOW 12,000 FEET WITH NO
SIGNIFICANT WEATHER AND/OR OBSTRUCTIONS TO VISIBILITY.

MSZ001>002-007>008-010>013-018>021-025>028-034>036-200100-
NORTHWEST MISSISSIPPI

CITY           SKY/WX    TMP DP  RH WIND       PRES   REMARKS
CLARKSDALE     FAIR      59  50  72 CALM      30.11S
CLEVELAND      FAIR      61  51  70 CALM      30.10R
GREENWOOD      CLEAR     57  51  80 CALM      30.10R
6HR MIN TEMP:  57; 6HR MAX TEMP:  72;

GREENVILLE     NOT AVBL
GRENADA          N/A    N/A N/A N/A MISG        N/A
OLIVE BRANCH   PTCLDY    55  52  88 CALM      30.11S
OXFORD         FAIR      54  50  87 CALM      30.12
TUNICA         CLEAR     57  50  77 N3        30.12R
$$

MSZ003>006-009-014>017-022>024-029>033-037>039-200100-
NORTHEAST MISSISSIPPI

CITY           SKY/WX    TMP DP  RH WIND       PRES   REMARKS
COLUMBUS AFB   CLEAR     58  51  79 NW2       30.10R
6HR MIN TEMP:  58; 6HR MAX TEMP:  70;

CORINTH        FAIR      57  50  77 CALM        N/A
GOLDN TRIANGLE CLEAR     63  46  55 CALM      30.09S
TUPELO         CLEAR     59  49  69 CALM      30.10R
6HR MIN TEMP:  59; 6HR MAX TEMP:  68;

$$

MSZ040-058-200100-
CENTRAL MISSISSIPPI

CITY           SKY/WX    TMP DP  RH WIND       PRES   REMARKS
JACKSON INTL   NOT AVBL
JACKSON HAWKNS CLEAR     65  48  54 N3        30.09R
6HR MIN TEMP:  64; 6HR MAX TEMP:  74;

MERIDIAN KEY   CLEAR     57  51  80 CALM      30.08R
6HR MIN TEMP:  57; 6HR MAX TEMP:  73;

MERIDIAN NAS   CLEAR     61  50  67 CALM      30.08S
6HR MIN TEMP:  60; 6HR MAX TEMP:  74;

RAYMOND        FAIR      57  52  82 MISG      30.09R
VICKSBURG      CLEAR     58  51  78 N3        30.08S
6HR MIN TEMP:  57; 6HR MAX TEMP:  73;

$$

MSZ059>079-200100-
SOUTH MISSISSIPPI

CITY           SKY/WX    TMP DP  RH WIND       PRES   REMARKS
BROOKHAVEN     FAIR      61  52  72 CALM      30.10R
COLUMBIA         N/A    N/A N/A N/A MISG        N/A
HATTIESBURG    CLEAR     59  52  77 CALM      30.08R
6HR MIN TEMP:  59; 6HR MAX TEMP:  75;

MCCOMB         CLEAR     63  52  67 CALM      30.07S
6HR MIN TEMP:  63; 6HR MAX TEMP:  75;

NATCHEZ        CLEAR     61  54  77 CALM      30.08F
6HR MIN TEMP:  61; 6HR MAX TEMP:  72;

PINE BELT      CLEAR     57  48  72 CALM      30.09S
6HR MIN TEMP:  57; 6HR MAX TEMP:  73;

$$

MSZ080>082-200100-
COASTAL MISSISSIPPI

CITY           SKY/WX    TMP DP  RH WIND       PRES   REMARKS
BAY ST LOUIS   CLEAR     63  55  77 CALM      30.06R
BILOXI         CLEAR     67  53  59 CALM      30.06R
6HR MIN TEMP:  67; 6HR MAX TEMP:  76;

PASCAGOULA     CLEAR     59  54  83 CALM      30.06R
6HR MIN TEMP:  59; 6HR MAX TEMP:  78;

GULFPORT       CLEAR     65  57  75 CALM      30.05R
6HR MIN TEMP:  65; 6HR MAX TEMP:  77;

$$



USA.gov is the U.S. government's official web portal to all federal, state and local government web resources and services.